Terug naar catalogus

STARLINK-32564

ActiefCommunicatieVLEO
NORAD 61924·PAYLOAD·🇺🇸 United States

Gelanceerd Nov 11, 2024 vanaf Cape Canaveral Space Force Station

Loading…

Volgende Passages (komende 24 uur)

TLE

VersSource: CelesTrak SupGP

Epoch: Sep 15, 2026, 03:25 UTC

1 61924C 24207N   26258.14284722  .00013157  00000+0  47646-3 0  2584
2 61924  43.0019 295.6401 0001307 262.3919  44.7720 15.27578368    18

Volg STARLINK-32564 in realtime met AllMySat

Download on the App Store